CDT,Max TemperatureF,Mean TemperatureF,Min TemperatureF,Max Dew PointF,MeanDew PointF,Min DewpointF,Max Humidity, Mean Humidity, Min Humidity, Max Sea Level PressureIn, Mean Sea Level PressureIn, Min Sea Level PressureIn, Max VisibilityMiles, Mean VisibilityMiles, Min VisibilityMiles, Max Wind SpeedMPH, Mean Wind SpeedMPH, Max Gust SpeedMPH,PrecipitationIn, CloudCover, Events, WindDirDegrees
2012-10-1,75,60,46,46,35,27,76,44,19,29.94,29.91,29.88,10,10,4,21,7,29,0.00,0,,341
2012-10-2,73,55,37,46,36,32,87,55,23,29.97,29.92,29.86,10,10,5,8,3,,0.00,0,,4
2012-10-3,78,58,39,43,36,30,87,46,18,29.94,29.90,29.84,10,10,7,17,6,23,0.00,0,,154
2012-10-4,60,46,33,39,33,27,76,55,33,30.26,30.10,29.90,10,10,7,26,15,36,0.00,1,Rain,281
2012-10-5,51,38,24,28,20,9,93,55,20,30.26,30.22,30.15,10,10,10,25,10,30,0.00,0,,276
2012-10-6,42,32,23,27,22,18,86,61,42,30.29,30.25,30.21,10,10,10,17,9,22,0.00,6,,303
2012-10-7,53,34,15,25,18,12,93,54,22,30.26,30.14,29.98,10,10,10,17,4,23,0.00,0,,212
2012-10-8,68,50,33,41,27,21,81,45,20,29.98,29.85,29.74,10,10,7,30,13,39,0.00,2,,193
2012-10-9,55,44,32,48,38,28,93,77,53,30.06,29.89,29.78,10,10,7,20,7,26,0.11,5,Rain,281
2012-10-10,55,40,26,32,25,19,93,60,25,30.19,30.09,29.99,10,10,10,15,7,20,0.00,0,,239
2012-10-11,51,42,32,34,28,21,66,51,40,30.37,30.12,29.97,10,10,10,18,11,24,0.00,0,,307
2012-10-12,55,40,24,39,19,7,80,48,14,30.41,30.30,30.04,10,10,10,20,9,25,0.00,2,Rain,103
2012-10-13,73,60,48,63,54,39,100,84,69,30.03,29.79,29.66,10,8,2,20,12,25,0.21,7,Rain,173
2012-10-14,59,52,42,55,46,36,100,81,59,29.93,29.75,29.62,10,8,2,28,13,37,1.43,5,Rain,331
2012-10-15,64,48,32,43,38,30,93,68,37,29.99,29.92,29.81,10,10,10,12,4,,0.00,0,,176
2012-10-16,71,60,48,50,46,43,82,66,43,29.80,29.54,29.41,10,10,10,16,11,23,0.00,0,,172
2012-10-17,60,53,46,52,43,34,94,69,42,29.45,29.37,29.28,10,10,10,30,14,41,0.02,4,Rain,239
2012-10-18,46,42,39,45,40,34,93,86,62,29.40,29.32,29.26,10,8,2,31,21,38,0.15,8,Rain,279
2012-10-19,46,45,44,45,43,43,100,92,87,29.77,29.61,29.40,10,8,2,20,12,24,0.02,8,Rain,314
2012-10-20,51,46,42,45,42,39,100,88,76,29.85,29.81,29.77,10,9,1,13,5,,0.00,6,,147
2012-10-21,73,58,42,57,48,39,93,77,53,29.85,29.81,29.78,10,10,7,20,12,22,0.00,1,,128
2012-10-22,78,66,55,63,58,54,94,81,47,29.86,29.82,29.79,10,8,2,14,7,17,0.00,5,Rain,63
2012-10-23,68,62,57,64,61,55,100,92,88,29.79,29.76,29.70,10,5,1,15,10,,0.00,7,,155
2012-10-24,66,58,51,66,59,48,100,96,88,29.81,29.76,29.69,7,3,0,16,6,24,0.14,8,Fog-Rain,3
2012-10-25,51,43,35,48,36,27,100,87,70,30.24,29.90,29.58,10,9,2,30,19,39,0.89,8,Rain,323
2012-10-26,39,34,28,30,27,25,93,72,60,30.43,30.37,30.25,10,10,10,15,10,22,0.00,6,,298
2012-10-27,42,34,26,30,26,19,100,68,42,30.40,30.34,30.29,10,10,7,5,2,,0.00,3,,290
2012-10-28,46,37,28,27,23,19,93,60,34,30.35,30.31,30.26,10,10,10,10,6,,0.00,2,,133
2012-10-29,50,40,30,30,25,21,86,60,37,30.30,30.26,30.19,10,10,10,20,9,23,0.00,2,,126
2012-10-30,48,37,26,27,26,23,93,67,40,30.19,30.10,30.03,10,10,10,14,7,,0.00,1,,26
2012-10-31,53,38,23,28,23,19,100,64,26,30.05,30.01,29.96,10,10,7,12,5,9,0.00,0,,316